Tracking 30009 objects as of 8-Dec-2024
HD Live streaming from Space Station
objects crossing your sky now

USA 136

Track USA 136 now!
USA 136 is classified as:


NORAD ID: 25034
Int'l Code: 1997-068A
Perigee: 3,079.5 km
Apogee: 37,290.2 km
Inclination: 64.6 °
Period: 717.8 minutes
Semi major axis: 26555 km
RCS: Unknown
Launch date: November 8, 1997
Source: United States (US)
Launch site: AIR FORCE EASTERN TEST RANGE (AFETR)

Signals intelligence; surveillance of cellular phones.
Your satellite tracking list
Your tracking list is empty




NASA's NSSDC Master Catalog

Two Line Element Set (TLE):
1 25034U 97068A   24107.50381344 0.00000000  00000-0  00000-0 0    09
2 25034  64.6265  16.4636 6441265 273.7808  20.0467  2.00614604    06
Source of the keplerian elements: McCants